Weather History for KGXA - August, 2013

Change the Weather History Date:

Tuesday, August 6, 2013

  Actual Average (KPMD) Record (KPMD)
Temperature  
Mean Temperature 76 °F 82 °F  
Max Temperature 95 °F 99 °F 112 °F (1997)
Min Temperature 57 °F 66 °F 50 °F (1956)
Degree Days  
Heating Degree Days 0 0  
Month to date heating degree days 0  
Since 1 June heating degree days 7  
Since 1 July heating degree days 0  
Cooling Degree Days 11 18  
Month to date cooling degree days 108  
Year to date cooling degree days 1086  
Since 1 June cooling degree days 916  
Growing Degree Days 26 (Base 50)    
Moisture  
Dew Point 22 °F    
Average Humidity 14    
Maximum Humidity 29    
Minimum Humidity 5    
Precipitation  
Precipitation 0.00 in 0.01 in 1.55 in (1968)
Month to date precipitation 0.02  
Year to date precipitation 5.44  
Since 1 July precipitation 0.12  
Snow  
Snow 0.00 in - 0.00 in (1973)
Month to date snowfall  
Since 1 June snowfall  
Since 1 July snowfall  
Snow Depth -    
Sea Level Pressure  
Sea Level Pressure 29.86 in    
Wind  
Wind Speed 8 mph (WSW)    
Max Wind Speed 29 mph    
Max Gust Speed 41 mph    
Visibility 9 miles    
Events      
T = Trace of Precipitation, MM = Missing Value Source: NWS Daily Summary

Daily Weather History Graph

Daily Weather History Graph

Search for Another Location

Airport or City:

Trip Planner

Search our weather history database for the weather conditions in past years. The results will help you decide how hot, cold, wet, or windy it might be!

Date:

Astronomy

Aug. 06, 2013 Rise Set
Actual Time 6:04 AM PDT 7:47 PM PDT
Civil Twilight 5:37 AM PDT 8:14 PM PDT
Nautical Twilight 5:04 AM PDT 8:47 PM PDT
Astronomical Twilight 4:30 AM PDT 9:22 PM PDT
Moon 5:57 AM PDT (8/6) 7:28 PM PDT (8/6)
Length of Visible Light 14h 37m
Length of Day
13h 42m
Waning Crescent, 0% of the Moon is Illuminated
Aug 6
Waning Crescent
Aug 6
New
Aug 14
First Quarter
Aug 20
Full
Aug 28
Last Quarter

Hourly Weather History & Observations

Time (PDT) Temp. Dew Point Humidity Pressure Visibility Wind Dir Wind Speed Gust Speed Precip Events Conditions
12:55 AM 61.3 °F 27.3 °F 27% 29.86 in 10.0 mi SSE 4.6 mph - N/A   Clear
1:55 AM 59.7 °F 27.0 °F 29% 29.85 in 10.0 mi SSE 4.6 mph - N/A   Clear
2:55 AM 59.4 °F 23.4 °F 25% 29.85 in 10.0 mi SSE 3.5 mph - N/A   Clear
3:55 AM 59.4 °F 17.2 °F 19% 29.84 in 10.0 mi South 4.6 mph - N/A   Clear
4:55 AM 58.3 °F 18.0 °F 21% 29.86 in 10.0 mi South 4.6 mph - N/A   Clear
5:55 AM 57.6 °F 16.5 °F 20% 29.89 in 10.0 mi SSE 4.6 mph - N/A   Clear
6:55 AM 64.4 °F 17.2 °F 16% 29.89 in 10.0 mi SW 3.5 mph - N/A   Clear
7:55 AM 70.5 °F 18.5 °F 14% 29.90 in 10.0 mi NW 2.3 mph - N/A   Clear
8:55 AM 80.1 °F 14.7 °F 9% 29.90 in 10.0 mi Variable 2.3 mph - N/A   Clear
9:55 AM 83.8 °F 15.4 °F 8% 29.91 in 10.0 mi Variable 3.5 mph - N/A   Clear
10:55 AM 87.3 °F 8.1 °F 5% 29.91 in 10.0 mi Variable 2.3 mph - N/A   Clear
11:55 AM 92.7 °F 11.8 °F 5% 29.89 in 10.0 mi West 10.4 mph 17.3 mph N/A   Clear
12:55 PM 93.6 °F 15.4 °F 6% 29.88 in 10.0 mi West 10.4 mph 19.6 mph N/A   Clear
1:55 PM 93.4 °F 17.2 °F 6% 29.87 in 10.0 mi WNW 12.7 mph 21.9 mph N/A   Partly Cloudy
2:55 PM 94.3 °F 19.6 °F 7% 29.85 in 10.0 mi NW 16.1 mph 19.6 mph N/A   Clear
3:55 PM 94.5 °F 25.9 °F 9% 29.83 in 10.0 mi WNW 20.7 mph 28.8 mph N/A   Clear
4:22 PM 95.0 °F 26.6 °F 9% 29.82 in 1.5 mi WNW 28.8 mph 35.7 mph N/A   Haze
4:32 PM 93.2 °F 26.6 °F 9% 29.82 in 2.0 mi West 25.3 mph 32.2 mph N/A   Haze
4:38 PM 93.2 °F 26.6 °F 9% 29.82 in 1.8 mi West 21.9 mph 32.2 mph N/A   Haze
4:48 PM 93.2 °F 24.8 °F 9% 29.83 in 4.0 mi West 15.0 mph 41.4 mph N/A   Clear
4:55 PM 93.9 °F 25.0 °F 8% 29.83 in 5.0 mi WSW 15.0 mph 32.2 mph N/A   Partly Cloudy
5:55 PM 91.4 °F 24.6 °F 9% 29.84 in 10.0 mi WSW 13.8 mph - N/A   Clear
6:55 PM 88.9 °F 23.5 °F 9% 29.84 in 10.0 mi West 10.4 mph 15.0 mph N/A   Clear
7:55 PM 80.1 °F 23.0 °F 12% 29.87 in 10.0 mi WNW 12.7 mph - N/A   Clear
8:55 PM 74.8 °F 25.3 °F 16% 29.88 in 10.0 mi WNW 11.5 mph - N/A   Clear
9:55 PM 70.9 °F 29.7 °F 22% 29.90 in 10.0 mi West 5.8 mph - N/A   Clear
10:55 PM 70.9 °F 29.8 °F 22% 29.89 in 10.0 mi WNW 13.8 mph - N/A   Clear
11:55 PM 64.9 °F 28.9 °F 26% 29.90 in 10.0 mi SSE 1.2 mph - N/A   Clear